[[{"header":{"parameterUnit":"m.s-1","parameterCategory":1,"la1":30.2991,"la2":30.254,"lo1":-89.0895,"lo2":-89.0444,"dy":0.0017,"dx":0.0017,"nx":28,"ny":28,"refTime":"2023-08-31T21:00:00:Z","depth":0,"parameterNumber":2,"parameterNumberName":"U-component_of_WINDS"},"data":[0,0,0,0,0,0,0,0,0,0,0,0,0,0,0,0,0,0,0,0,0,0,0,0,0,0,0,0,0,0,0,0,0,0,0,0,0,0,0,0,0,0,0,0,0,0,0,0,0,0,0,0,0,0,0,0,0,0,-0.3636,-0.3636,0,-0.3619,-0.3619,-0.3619,-0.3544,-0.3542,-0.3541,-0.3539,-0.3523,-0.3524,-0.3525,0,0,0,0,0,0,0,0,0,0,0,0,0,-0.3605,-0.3606,-0.3636,-0.3636,-0.3636,-0.3619,-0.3619,-0.3619,-0.3544,-0.3542,-0.354,-0.3538,-0.3522,-0.3524,-0.3525,0,0,0,0,0,0,0,0,0,0,0,0,0,-0.3607,-0.3606,-0.3636,-0.3597,-0.3593,-0.3619,-0.3619,-0.3619,-0.3545,-0.3542,-0.354,-0.3537,-0.3522,-0.3524,-0.3526,-0.3589,0,0,-0.3531,-0.3532,0,0,0,0,0,0,0,0,-0.3607,-0.3608,-0.3603,-0.3599,-0.3595,-0.3581,-0.3602,-0.3609,-0.3546,-0.3563,-0.3539,-0.3536,-0.3544,-0.3544,-0.3547,-0.3588,-0.3588,-0.3531,-0.3532,-0.3533,-0.3534,0,0,0,0,0,0,0,-0.3607,-0.3608,-0.363,-0.3603,-0.3598,-0.358,-0.3577,-0.3603,-0.3569,-0.3561,-0.3556,-0.3555,-0.3542,-0.3545,-0.3546,-0.3587,-0.3531,-0.3533,-0.3534,-0.3535,-0.3682,-0.3684,0,0,0,0,0,0,-0.3612,-0.3609,-0.363,-0.3629,-0.3595,-0.3583,-0.358,-0.3588,-0.3568,-0.3563,-0.3557,-0.3552,-0.3544,-0.3544,-0.3545,-0.3619,-0.3533,-0.3535,-0.3536,-0.3679,-0.3682,-0.3685,0,0,0,0,0,0,-0.3612,-0.3615,-0.3631,-0.3617,-0.3618,-0.3586,-0.3596,-0.3589,-0.3593,-0.3565,-0.3559,-0.3567,-0.3541,-0.3543,-0.3579,-0.3618,-0.3536,-0.3537,-0.3676,-0.368,-0.3684,-0.3768,0,0,0,0,0,0,-0.3611,-0.3615,-0.3639,-0.3618,-0.3619,-0.3665,-0.3599,-0.3591,-0.3596,-0.3588,-0.3573,-0.3567,-0.3539,-0.3577,-0.3581,-0.3619,-0.3539,-0.3672,-0.3677,-0.3682,-0.3762,-0.3775,-0.3786,0,0,0,0,0,-0.361,-0.3663,-0.364,-0.3643,-0.3648,-0.3667,-0.3668,-0.3634,-0.3599,-0.3623,-0.3605,-0.3568,-0.3613,-0.3581,-0.3585,-0.3624,-0.3669,-0.3676,-0.3682,-0.3757,-0.3772,-0.3786,0,0,0,0,0,0,-0.3689,-0.366,-0.3634,-0.3682,-0.3678,-0.3655,-0.3684,-0.3652,-0.3658,-0.365,-0.3609,-0.3606,-0.3649,-0.364,-0.3605,-0.3685,-0.3635,-0.3642,-0.369,-0.3705,-0.3717,-0.3719,-0.354,0,0,0,0,0,-0.3712,-0.3729,-0.3703,-0.3748,-0.3747,-0.3716,-0.3723,-0.3698,-0.3692,-0.369,-0.3674,-0.3671,-0.3684,-0.3693,-0.3704,-0.376,-0.3756,-0.3789,-0.3801,-0.3811,-0.3818,-0.3848,-0.3863,-0.3706,-0.3706,-0.3706,0,0,-0.3759,-0.3745,-0.3759,-0.3763,-0.3757,-0.3777,-0.3715,-0.3738,-0.3753,-0.3693,-0.3727,-0.3716,-0.3709,-0.3756,-0.3775,-0.375,-0.386,-0.3819,-0.3827,-0.3829,-0.3856,-0.3871,-0.3885,-0.3711,-0.371,-0.3709,0,0,-0.3856,-0.3847,-0.3884,-0.3879,-0.387,-0.3849,-0.3858,-0.384,-0.3831,-0.3864,-0.3819,-0.3836,-0.3859,-0.3857,-0.3858,-0.3955,-0.3921,-0.3959,-0.4023,-0.4053,-0.4065,-0.4076,-0.4112,-0.4125,-0.3967,-0.3967,-0.3967,0,-0.3917,-0.3945,-0.3907,-0.3934,-0.3938,-0.3884,-0.3921,-0.3918,-0.3914,-0.3918,-0.3888,-0.3917,-0.3908,-0.3954,-0.3978,-0.3981,-0.399,-0.3962,-0.4066,-0.4077,-0.4086,-0.412,-0.4134,-0.3972,-0.3971,-0.3971,-0.397,0,-0.402,-0.4041,-0.4071,-0.4069,-0.4075,-0.4107,-0.4075,-0.4086,-0.406,-0.4043,-0.4078,-0.4065,-0.4073,-0.4082,-0.4056,-0.4125,-0.4109,-0.4074,-0.4022,-0.4107,-0.4138,-0.4151,-0.3978,-0.3977,-0.3975,-0.3974,0,0,-0.4168,-0.4143,-0.4155,-0.4154,-0.414,-0.4155,-0.4185,-0.4192,-0.4204,-0.4202,-0.4227,-0.4248,-0.4216,-0.4218,-0.4191,-0.4218,-0.4297,-0.4179,-0.4178,-0.4203,-0.4373,-0.4401,-0.4417,-0.4274,-0.4276,-0.4278,-0.4374,0,-0.4262,-0.4311,-0.4278,-0.4334,-0.4353,-0.4302,-0.4328,-0.4323,-0.4307,-0.4321,-0.4304,-0.432,-0.4275,-0.4276,-0.4299,-0.4282,-0.4331,-0.4275,-0.4298,-0.4299,-0.4303,-0.4433,-0.4462,-0.4554,-0.4386,-0.4388,-0.439,0,-0.4378,-0.4382,-0.444,-0.4423,-0.443,-0.4454,-0.4458,-0.4472,-0.4466,-0.4452,-0.4455,-0.4422,-0.4451,-0.4399,-0.4439,-0.4402,-0.4409,-0.4403,-0.4405,-0.4408,-0.4351,-0.4441,-0.4582,-0.4597,-0.4408,-0.4407,-0.4405,0,-0.4482,-0.4501,-0.4539,-0.4539,-0.452,-0.4538,-0.4531,-0.4522,-0.4529,-0.4533,-0.4537,-0.4544,-0.4549,-0.4555,-0.4526,-0.4491,-0.4571,-0.4516,-0.4562,-0.4563,-0.4582,-0.4582,-0.4729,-0.4584,-0.4584,-0.4584,-0.4583,0,-0.4592,-0.4629,-0.4585,-0.4608,-0.4649,-0.4611,-0.4652,-0.464,-0.4632,-0.4653,-0.4608,-0.4629,-0.4587,-0.4604,-0.4581,-0.4618,-0.462,-0.4611,-0.4605,-0.4616,-0.4618,-0.4622,-0.4616,-0.4587,-0.4586,-0.4586,-0.4585,0,-0.4715,-0.4687,-0.4724,-0.4703,-0.4699,-0.473,-0.4713,-0.4734,-0.4714,-0.4741,-0.4745,-0.4716,-0.4733,-0.4703,-0.4716,-0.4701,-0.4754,-0.4737,-0.4757,-0.4752,-0.48,-0.4797,-0.4957,-0.4977,-0.4818,-0.4819,-0.4821,0,-0.4788,-0.4816,-0.4798,-0.4808,-0.4804,-0.4821,-0.4828,-0.4791,-0.48,-0.4795,-0.4817,-0.483,-0.4838,-0.4868,-0.4848,-0.4858,-0.4842,-0.4898,-0.4844,-0.4855,-0.4846,-0.4845,-0.4849,-0.491,-0.4912,-0.4913,-0.4914,0,-0.4921,-0.4905,-0.4916,-0.4923,-0.4933,-0.4936,-0.4936,-0.4948,-0.4909,-0.4921,-0.4938,-0.4945,-0.4958,-0.4972,-0.4978,-0.4971,-0.4937,-0.4931,-0.4943,-0.4956,-0.4967,-0.4963,-0.4789,-0.4928,-0.4927,-0.4926,-0.4925,-0.4924,-0.5022,-0.5045,-0.5036,-0.505,-0.5047,-0.5048,-0.5067,-0.5051,-0.5064,-0.5072,-0.5049,-0.5072,-0.5065,-0.5069,-0.5066,-0.5084,-0.5059,-0.5075,-0.508,-0.5085,-0.5093,-0.4962,-0.5084,-0.5084,-0.5083,-0.5083,-0.5083,0,-0.5154,-0.5146,-0.5159,-0.5161,-0.5173,-0.5138,-0.5137,-0.515,-0.517,-0.5166,-0.5176,-0.5196,-0.5209,-0.5191,-0.5201,-0.5219,-0.5204,-0.5223,-0.5223,-0.5222,-0.5114,-0.5104,-0.5235,-0.5235,-0.5235,-0.5235,-0.5235,-0.5235,-0.5224,-0.5261,-0.5245,-0.528,-0.5272,-0.5293,-0.5296,-0.5298,-0.5295,-0.5319,-0.533,-0.5317,-0.5308,-0.5318,-0.5329,-0.5323,-0.533,-0.5356,-0.5345,-0.5244,-0.5229,-0.5215,-0.5206,-0.5357,-0.5357,-0.5452,-0.5453,-0.5453]},{"header":{"parameterUnit":"m.s-1","parameterCategory":1,"la1":30.2991,"la2":30.254,"lo1":-89.0895,"lo2":-89.0444,"dy":0.0017,"dx":0.0017,"nx":28,"ny":28,"refTime":"2023-08-31T21:00:00:Z","depth":0,"parameterNumber":3,"parameterNumberName":"V-component_of_WINDS"},"data":[0,0,0,0,0,0,0,0,0,0,0,0,0,0,0,0,0,0,0,0,0,0,0,0,0,0,0,0,0,0,0,0,0,0,0,0,0,0,0,0,0,0,0,0,0,0,0,0,0,0,0,0,0,0,0,0,0,0,1.5268,1.5268,0,1.5256,1.5256,1.5256,1.5225,1.5225,1.5224,1.5223,1.5209,1.5209,1.521,0,0,0,0,0,0,0,0,0,0,0,0,0,1.526,1.5261,1.5268,1.5268,1.5268,1.5256,1.5256,1.5256,1.5225,1.5225,1.5224,1.5223,1.5209,1.5209,1.521,0,0,0,0,0,0,0,0,0,0,0,0,0,1.5258,1.5261,1.5268,1.5251,1.525,1.5256,1.5256,1.5256,1.5225,1.5225,1.5224,1.5223,1.5209,1.5209,1.521,1.5231,0,0,1.5211,1.5211,0,0,0,0,0,0,0,0,1.5258,1.5258,1.5254,1.5252,1.5251,1.5241,1.5248,1.5248,1.5226,1.5235,1.5223,1.5222,1.522,1.522,1.522,1.5231,1.523,1.5211,1.5211,1.5211,1.5211,0,0,0,0,0,0,0,1.5258,1.5258,1.5263,1.5254,1.5252,1.5243,1.5241,1.5248,1.5233,1.5234,1.5231,1.5231,1.5219,1.5219,1.5219,1.523,1.5211,1.5211,1.5211,1.5211,1.5254,1.5255,0,0,0,0,0,0,1.5261,1.5259,1.5264,1.5263,1.5252,1.5244,1.5242,1.5245,1.5233,1.523,1.5231,1.5229,1.5219,1.5219,1.5219,1.524,1.5211,1.5211,1.5212,1.5253,1.5254,1.5255,0,0,0,0,0,0,1.5261,1.5262,1.5264,1.526,1.526,1.5245,1.5249,1.5246,1.5245,1.5231,1.5228,1.5234,1.5219,1.5218,1.5228,1.5239,1.5212,1.5212,1.5252,1.5254,1.5255,1.5286,0,0,0,0,0,0,1.5261,1.5262,1.5271,1.5261,1.526,1.5275,1.5249,1.5246,1.5246,1.5243,1.5233,1.5231,1.5218,1.5227,1.5228,1.5239,1.5212,1.5251,1.5253,1.5254,1.5284,1.5288,1.5292,0,0,0,0,0,1.5261,1.5281,1.5272,1.5273,1.5272,1.5276,1.5275,1.5261,1.5248,1.5256,1.5246,1.5231,1.5239,1.5229,1.5229,1.5241,1.525,1.5252,1.5254,1.5282,1.5287,1.5292,0,0,0,0,0,0,1.5293,1.5279,1.5269,1.5287,1.5282,1.527,1.528,1.5267,1.5267,1.5264,1.5245,1.5243,1.5254,1.5249,1.5238,1.5259,1.5242,1.5244,1.5262,1.5267,1.5271,1.5271,1.5212,0,0,0,0,0,1.5302,1.5308,1.5295,1.5311,1.531,1.5296,1.5297,1.5286,1.5281,1.5279,1.527,1.5265,1.5265,1.5266,1.5267,1.5283,1.5279,1.5291,1.5295,1.5299,1.53,1.5305,1.531,1.5262,1.5262,1.5262,0,0,1.5321,1.5314,1.5319,1.5318,1.5313,1.5317,1.5294,1.5301,1.5303,1.5279,1.5287,1.5281,1.5273,1.5286,1.5291,1.5281,1.5313,1.5301,1.5304,1.5304,1.5308,1.5312,1.5316,1.5264,1.5263,1.5263,0,0,1.5357,1.5354,1.5365,1.5361,1.5354,1.5344,1.5347,1.5337,1.5331,1.5339,1.532,1.5323,1.5326,1.532,1.5318,1.5349,1.5334,1.535,1.5371,1.5376,1.538,1.5383,1.5391,1.5395,1.5352,1.5352,1.5352,0,1.538,1.5387,1.5373,1.5379,1.5378,1.5357,1.5367,1.5364,1.5358,1.5356,1.5347,1.5347,1.5341,1.535,1.5358,1.5358,1.5358,1.535,1.5381,1.5383,1.5386,1.5394,1.5398,1.5354,1.5354,1.5353,1.5353,0,1.5415,1.542,1.543,1.5424,1.5424,1.5433,1.5418,1.542,1.5408,1.5399,1.5405,1.5397,1.5394,1.5396,1.5385,1.5403,1.5397,1.5384,1.5365,1.5393,1.5399,1.5403,1.5356,1.5356,1.5355,1.5355,0,0,1.547,1.5455,1.5459,1.5454,1.5445,1.5448,1.5455,1.5452,1.5452,1.5448,1.5452,1.5454,1.5441,1.5438,1.5427,1.5432,1.5453,1.5418,1.5417,1.5422,1.5469,1.5477,1.5481,1.5444,1.5445,1.5445,1.5468,0,1.5501,1.5512,1.5498,1.5512,1.5514,1.5494,1.5499,1.5493,1.5484,1.5484,1.5474,1.5474,1.5459,1.5457,1.5461,1.545,1.5462,1.5448,1.5445,1.5445,1.5445,1.5485,1.5493,1.5516,1.5471,1.5472,1.5472,0,1.5539,1.5537,1.555,1.5537,1.5538,1.5543,1.5538,1.5539,1.5531,1.5524,1.552,1.5506,1.5509,1.5493,1.5496,1.5487,1.5485,1.5479,1.548,1.5477,1.5459,1.548,1.5523,1.5525,1.5477,1.5476,1.5476,0,1.5574,1.5574,1.5581,1.5579,1.5565,1.5569,1.5563,1.5554,1.5552,1.5548,1.5546,1.5542,1.5539,1.5535,1.552,1.551,1.5524,1.5507,1.5516,1.5517,1.5519,1.5518,1.5559,1.5521,1.5521,1.5521,1.5521,0,1.5609,1.5617,1.5596,1.5601,1.5609,1.5592,1.56,1.5592,1.5584,1.5585,1.5568,1.5569,1.5549,1.5548,1.5536,1.5539,1.5538,1.5531,1.5527,1.5531,1.5532,1.5528,1.5525,1.5522,1.5522,1.5522,1.5522,0,1.5648,1.5635,1.5641,1.5628,1.5624,1.563,1.5618,1.562,1.561,1.5611,1.5611,1.5594,1.5592,1.5576,1.557,1.5562,1.5568,1.5562,1.5571,1.5568,1.5577,1.5576,1.5615,1.5618,1.5581,1.5581,1.5582,0,1.567,1.5676,1.5662,1.5662,1.5657,1.5657,1.5655,1.5638,1.5637,1.5627,1.563,1.5625,1.5621,1.5617,1.5604,1.5598,1.5591,1.5605,1.559,1.5593,1.5588,1.5587,1.5586,1.5607,1.5608,1.5608,1.5609,0,1.5709,1.5702,1.57,1.5695,1.5693,1.5688,1.5683,1.5683,1.5665,1.5663,1.566,1.5657,1.565,1.5645,1.5637,1.563,1.5615,1.5614,1.5615,1.5618,1.5622,1.5617,1.5577,1.5613,1.5612,1.5612,1.5612,1.5612,1.5738,1.5741,1.5732,1.5729,1.5723,1.5718,1.5719,1.5709,1.5706,1.5699,1.569,1.5687,1.5677,1.5664,1.5658,1.5655,1.5647,1.565,1.565,1.565,1.5651,1.5624,1.5654,1.5654,1.5654,1.5653,1.5653,0,1.5773,1.5766,1.5764,1.5757,1.5754,1.5742,1.5735,1.5733,1.5731,1.5723,1.5719,1.5714,1.5709,1.5696,1.5689,1.5689,1.5682,1.5687,1.5686,1.5684,1.566,1.5658,1.5693,1.5693,1.5693,1.5693,1.5693,1.5693,1.5791,1.5795,1.5787,1.5786,1.5779,1.5777,1.5773,1.5767,1.5761,1.5756,1.5752,1.5743,1.5732,1.5724,1.5718,1.5714,1.5711,1.5719,1.5712,1.569,1.5686,1.5682,1.568,1.5719,1.5719,1.5736,1.5736,1.5736]}]]